Location: Oakhurst
(33.6448°N, 111.9543°W)
Time: 03:28:14
(UTC+00:00)

QB50P2 - Pass Details

Date: 01 August 2021
Orbit: 593 x 608 km, 97.9° (Epoch: 26 September)

Event Time Altitude Azimuth Distance (km) Brightness Sun altitude
Rises 08:45:42 0° 5° (N) 2,858 ? -35.7°
Reaches altitude 10° 08:47:55 10° 359° (N) 1,954 ? -35.5°
Enters shadow 08:48:47 16° 356° (N) 1,613 ? -35.5°
